Location: Chantarel
(45.1638°N, 1.7873°E)
Time: 13:55:09
(UTC+00:00)

Cosmos 2219 Rocket - Pass Details

Date: 03 March 2021
Orbit: 826 x 848 km, 71.0° (Epoch: 15 April)

Event Time Altitude Azimuth Distance (km) Brightness Sun altitude
Rises 21:07:00 0° 235° (SW) 3,358 5.6 -35.5°
Reaches altitude 10° 21:09:42 10° 246° (WSW) 2,431 4.9 -35.9°
Maximum altitude 21:14:36 31° 308° (NW) 1,434 3.8 -36.6°
Drops below altitude 10° 21:19:32 10° 9° (N) 2,453 4.8 -37.3°
Sets 21:22:17 0° 20° (NNE) 3,395 5.5 -37.7°
